DISCOBAY Weather Reports


time (UTC)temp
C
wind
direction
speed
KPH
gust
KPH
rain 1hr
cm
rain 24hr
cm
rain mn
cm
humidity
%
barometer
mb
20260505121556 11 0 0.0 8.0 0.00 0.00 0.00 92 1014.2
20260505120110 11 75 1.6 4.8 0.00 0.00 0.00 92 1014.1
20260505114555 11 68 0.0 6.4 0.00 0.00 0.00 91 1014.1
20260505113053 11 97 1.6 6.4 0.00 0.00 0.00 91 1013.9
20260505111553 11 49 1.6 6.4 0.00 0.00 0.00 91 1013.9
20260505110111 11 49 0.0 4.8 0.00 0.00 0.00 91 1013.7
20260505101602 11 0 0.0 0.0 0.00 0.00 0.00 91 1013.5
20260505100100 10 0 0.0 0.0 0.00 0.00 0.00 91 1013.5
20260505094558 10 0 0.0 0.0 0.00 0.00 0.00 90 1013.5
20260505091558 11 0 0.0 1.6 0.00 0.00 0.00 89 1013.3
20260505090058 11 0 0.0 0.0 0.00 0.00 0.00 89 1013.1
20260505084603 11 0 0.0 0.0 0.00 0.00 0.00 89 1012.9
20260505083112 11 0 0.0 0.0 0.00 0.00 0.00 89 1012.8
20260505081606 11 0 0.0 1.6 0.00 0.00 0.00 89 1012.7
20260505080055 11 0 0.0 1.6 0.00 0.00 0.00 89 1012.7
20260505074556 11 0 0.0 0.0 0.00 0.00 0.00 88 1012.7
20260505073059 12 0 0.0 3.2 0.00 0.00 0.00 86 1012.5
20260505071556 12 22 0.0 6.4 0.00 0.00 0.00 87 1012.2
20260505070053 12 0 0.0 1.6 0.00 0.00 0.00 87 1012.1
20260505064631 12 0 0.0 3.2 0.00 0.00 0.00 86 1011.9
20260505063058 12 0 0.0 1.6 0.00 0.00 0.00 82 1011.9
20260505061600 13 0 0.0 3.2 0.00 0.00 0.00 81 1011.7
20260505060056 13 0 0.0 1.6 0.00 0.00 0.00 80 1011.5
20260505054554 13 0 0.0 0.0 0.00 0.00 0.00 80 1011.3
20260505053057 13 0 0.0 0.0 0.00 0.00 0.00 80 1011.3
20260505051554 14 0 0.0 0.0 0.00 0.00 0.00 79 1011.2
20260505050106 14 0 0.0 3.2 0.00 0.00 0.00 78 1010.9
20260505041602 16 0 1.6 3.2 0.00 0.00 0.00 73 1010.5
20260505040100 16 0 0.0 3.2 0.00 0.00 0.00 72 1010.5
20260505034608 16 0 0.0 3.2 0.00 0.00 0.00 71 1010.4
20260505033054 16 0 0.0 3.2 0.00 0.00 0.00 69 1010.1
20260505031551 17 0 0.0 3.2 0.00 0.00 0.00 68 1009.9
20260505030127 17 0 0.0 3.2 0.00 0.00 0.00 66 1009.7
20260505024608 18 21 1.6 4.8 0.00 0.00 0.00 64 1009.7
20260505023052 18 21 1.6 6.4 0.00 0.00 0.00 62 1009.6
20260505021552 19 21 0.0 4.8 0.00 0.00 0.00 60 1009.7
20260505020104 20 0 0.0 3.2 0.00 0.00 0.00 58 1009.9
20260505014553 20 0 0.0 3.2 0.00 0.00 0.00 60 1010.0
20260505013053 19 21 1.6 4.8 0.00 0.00 0.00 59 1010.2
20260505011557 20 21 3.2 6.4 0.00 0.00 0.00 58 1010.3
20260505010108 20 23 1.6 8.0 0.00 0.00 0.00 59 1010.4
20260505004620 20 19 3.2 8.0 0.00 0.00 0.00 58 1010.4
20260505003059 21 26 1.6 6.4 0.00 0.00 0.00 55 1010.4
20260505001552 21 0 3.2 8.0 0.00 0.00 0.00 55 1010.4
20260505000107 21 43 1.6 8.0 0.00 0.00 0.00 54 1010.4
20260504234554 21 68 1.6 6.4 0.00 0.00 0.00 50 1010.4
20260504233053 21 32 3.2 9.7 0.00 0.00 0.00 50 1010.6
20260504231620 21 266 3.2 16.1 0.00 0.00 0.00 52 1010.6
20260504230051 21 339 1.6 8.0 0.00 0.00 0.00 52 1010.6
20260504224552 22 352 1.6 6.4 0.00 0.00 0.00 50 1010.8
20260504223101 22 348 3.2 6.4 0.00 0.00 0.00 48 1010.8
20260504221641 23 262 1.6 11.3 0.00 0.00 0.00 43 1010.8
20260504220056 23 267 4.8 9.7 0.00 0.00 0.00 39 1010.8
20260504214554 25 306 1.6 6.4 0.00 0.00 0.00 39 1011.0
20260504213101 24 257 3.2 9.7 0.00 0.00 0.00 41 1011.2
20260504211553 25 298 0.0 6.4 0.00 0.00 0.00 39 1011.2
20260504210058 25 277 1.6 9.7 0.00 0.00 0.00 42 1011.1
20260504204600 24 0 1.6 9.7 0.00 0.00 0.00 42 1011.2
20260504203053 24 312 1.6 6.4 0.00 0.00 0.00 41 1011.1
20260504201554 24 270 1.6 6.4 0.00 0.00 0.00 40 1011.3
20260504200056 24 257 0.0 6.4 0.00 0.00 0.00 41 1011.3
20260504194558 23 248 6.4 11.3 0.00 0.00 0.00 44 1011.1
20260504193055 22 0 3.2 11.3 0.00 0.00 0.00 49 1011.3
20260504191615 21 242 4.8 8.0 0.00 0.00 0.00 50 1011.5
20260504190058 20 246 1.6 4.8 0.00 0.00 0.00 53 1011.4
20260504184601 21 247 6.4 12.9 0.00 0.00 0.00 52 1011.5
20260504183054 21 259 1.6 9.7 0.00 0.00 0.00 48 1011.5
20260504181551 21 0 0.0 6.4 0.00 0.00 0.00 49 1011.7
20260504180054 20 43 0.0 6.4 0.00 0.00 0.00 51 1011.6
20260504174553 19 342 0.0 6.4 0.00 0.00 0.00 53 1011.5
20260504173055 19 263 0.0 6.4 0.00 0.00 0.00 56 1011.5
20260504171553 18 0 1.6 11.3 0.00 0.00 0.00 59 1011.6
20260504140105 15 325 1.6 3.2 0.00 0.00 0.00 60 1010.2